Погода в Чадаевке

Россия / Саратовская область     51°23′00″N   44°45′48″E
темп.,
°C
ветер,
м/с
пор.,
м/с
влажн.,
%
обл.,
%
осадки,
мм/ч
давл.,
гПа
погр.,
м
11 апреля, вс
вс1101:00+4с5997100 0.0 1022278
04:00+4с51098100 0.0 1023323
07:00+4ссв51098100 0.0 1023311
10:00+6ссв6895100 0.0 1024300
13:00+11св4581100 0.0 1024412
16:00+14всв5774100 0.0 1024589
19:00+12ссв4885100 0.0 1025207
22:00+10св41091100 0.0 1025181
12 апреля, пн
пн1201:00+9св239098 0.0 102631
04:00+9всв228820 0.0 102721
07:00+9в348174 0.0 102755
10:00+16вюв585659 0.0 1028345
13:00+19вюв694164 0.0 1028734
16:00+20вюв793590 0.0 10281472
19:00+17вюв485291 0.0 1028149
22:00+12вюв396235 0.0 1029137
13 апреля, вт
вт1301:00+10в48635 0.0 1029116
04:00+8в496848 0.0 1029124
07:00+8в411705 0.0 1030188
10:00+14вюв610475 0.0 1029446
13:00+18юв683732 0.0 1029862
16:00+19вюв673298 0.0 10281367
19:00+16вюв37450 0.0 1027130
22:00+12вюв35540 0.0 102757
14 апреля, ср
ср1401:00+10вюв36633 0.0 102783
04:00+8в3669100 0.0 102679
07:00+8в3107330 0.0 1026160
10:00+14вюв694823 0.0 1025454
13:00+17вюв68385 0.0 1024938
16:00+19вюв67325 0.0 10221580
19:00+16вюв36465 0.0 102197
22:00+12в35555 0.0 102159
15 апреля, чт
чт1501:00+10в375936 0.0 102098
04:00+9в376834 0.0 1020104
07:00+8в38750 0.0 1019133
10:00+15вюв58572 0.0 1017473
13:00+18юв67440 0.0 10161234
16:00+19юв56385 0.0 10142037
19:00+17ю224495 0.0 101325
22:00+13юз355984 0.0 101461